Location: *
(51.0333°S, 178.4667°E)
Time: 13:14:42
(UTC+00:00)

STARLINK-65 - Pass Details

Date: 15 November 2019
Orbit: 529 x 530 km, 53.0° (Epoch: 06 December)

Event Time Altitude Azimuth Distance (km) Brightness Sun altitude
Rises 08:47:47 0° 275° (W) 2,672 7.7 -9.8°
Reaches altitude 10° 08:50:00 10° 272° (W) 1,784 6.8 -10.1°
Maximum altitude 08:54:03 69° 188° (S) 575 3.9 -10.5°
Drops below altitude 10° 08:58:06 10° 104° (ESE) 1,791 6.0 -10.9°
Enters shadow 09:00:46 -2° 100° (E) 2,857 7.0 -11.2°
